G6RZA-13 Weather Reports


time (UTC)temp
C
wind
direction
speed
KPH
gust
KPH
rain 1hr
cm
rain 24hr
cm
rain mn
cm
humidity
%
barometer
mb
20260507225016 10 99 8.0 12.9 0.00 0.00 0.00 87 1017.3
20260507224017 10 89 6.4 11.3 0.00 0.00 0.00 86 1017.3
20260507223016 10 99 6.4 9.7 0.00 0.00 0.00 86 1017.4
20260507222016 10 130 3.2 6.4 0.00 0.00 0.00 86 1017.5
20260507221017 10 93 4.8 11.3 0.00 0.00 0.00 86 1017.5
20260507220032 10 69 4.8 6.4 0.00 0.00 0.00 87 1017.6
20260507215017 10 52 1.6 6.4 0.00 0.00 0.00 87 1017.6
20260507214037 10 68 3.2 9.7 0.00 0.00 0.00 86 1017.7
20260507213017 10 72 3.2 4.8 0.00 0.00 0.00 86 1017.7
20260507212017 10 112 3.2 6.4 0.00 0.00 0.00 86 1017.7
20260507211018 10 64 3.2 6.4 0.00 0.00 0.00 85 1017.8
20260507210017 10 114 4.8 8.0 0.00 0.00 0.00 85 1017.7
20260507205018 10 74 3.2 4.8 0.00 0.00 0.00 84 1017.7
20260507204018 10 91 4.8 8.0 0.00 0.00 0.00 84 1017.6
20260507203038 11 81 3.2 9.7 0.00 0.00 0.00 83 1017.5
20260507202018 11 69 1.6 4.8 0.00 0.00 0.00 82 1017.4
20260507201018 11 80 3.2 6.4 0.00 0.00 0.00 81 1017.3
20260507200018 11 77 4.8 11.3 0.00 0.00 0.00 81 1017.1
20260507195018 11 74 6.4 9.7 0.00 0.00 0.00 80 1017.0
20260507194019 11 103 3.2 6.4 0.00 0.00 0.00 80 1016.9
20260507193019 11 42 0.0 3.2 0.00 0.00 0.00 79 1016.9
20260507192019 12 57 3.2 6.4 0.00 0.00 0.00 79 1016.9
20260507191019 12 65 1.6 6.4 0.00 0.00 0.00 78 1016.9
20260507190019 12 83 4.8 12.9 0.00 0.00 0.00 78 1016.9
20260507185019 12 71 3.2 6.4 0.00 0.00 0.00 77 1016.9
20260507184019 12 64 3.2 6.4 0.00 0.00 0.00 77 1016.9
20260507183019 12 93 6.4 11.3 0.00 0.00 0.00 76 1016.9
20260507182040 13 230 1.6 4.8 0.00 0.00 0.00 75 1016.8
20260507181039 13 147 0.0 1.6 0.00 0.00 0.00 75 1016.8
20260507180020 13 162 6.4 16.1 0.00 0.00 0.00 74 1016.7
20260507175020 13 195 3.2 8.0 0.00 0.00 0.00 75 1016.8
20260507174020 13 187 6.4 16.1 0.00 0.00 0.00 74 1016.8
20260507173020 13 146 8.0 11.3 0.00 0.00 0.00 74 1016.8
20260507172041 13 170 4.8 12.9 0.00 0.00 0.00 74 1016.9
20260507171021 13 191 4.8 16.1 0.00 0.00 0.00 74 1016.8
20260507170021 13 88 4.8 9.7 0.00 0.00 0.00 74 1016.8
20260507165021 13 160 8.0 14.5 0.00 0.00 0.00 74 1016.8
20260507164041 13 174 3.2 12.9 0.00 0.00 0.00 75 1016.8
20260507163021 13 180 4.8 14.5 0.00 0.00 0.00 73 1016.8
20260507162020 13 173 4.8 12.9 0.00 0.00 0.00 74 1016.8
20260507161041 13 188 6.4 14.5 0.00 0.00 0.00 74 1016.9
20260507160021 13 179 6.4 14.5 0.00 0.00 0.00 73 1016.9
20260507155041 13 149 4.8 11.3 0.00 0.00 0.00 73 1016.9
20260507154021 13 165 8.0 19.3 0.00 0.00 0.00 74 1017.0
20260507153021 14 185 8.0 22.5 0.00 0.00 0.00 72 1017.0
20260507152042 13 159 4.8 20.9 0.00 0.00 0.00 72 1017.1
20260507151021 13 218 3.2 12.9 0.00 0.00 0.00 72 1017.1
20260507150022 13 177 6.4 11.3 0.00 0.00 0.00 73 1017.1
20260507145042 13 175 8.0 19.3 0.00 0.00 0.00 74 1017.1
20260507144022 13 177 8.0 17.7 0.00 0.00 0.00 73 1017.1
20260507143022 13 153 4.8 12.9 0.00 0.00 0.00 72 1017.1
20260507142022 14 180 9.7 16.1 0.00 0.00 0.00 71 1017.2
20260507141016 14 175 11.3 20.9 0.00 0.00 0.00 71 1017.3
20260507140036 14 158 6.4 9.7 0.00 0.00 0.00 71 1017.3
20260507135017 14 171 8.0 16.1 0.00 0.00 0.00 72 1017.4
20260507134017 14 191 9.7 20.9 0.00 0.00 0.00 72 1017.4
20260507133023 14 210 11.3 20.9 0.00 0.00 0.00 71 1017.4
20260507132023 14 178 6.4 11.3 0.00 0.00 0.00 71 1017.3
20260507131017 14 184 9.7 19.3 0.00 0.00 0.00 71 1017.4
20260507130017 14 161 9.7 24.1 0.00 0.00 0.00 72 1017.4
20260507125037 14 184 6.4 17.7 0.00 0.00 0.00 72 1017.4
20260507124017 14 180 8.0 17.7 0.00 0.00 0.00 72 1017.4
20260507123018 14 180 6.4 17.7 0.00 0.00 0.00 72 1017.3
20260507122017 14 153 9.7 22.5 0.00 0.00 0.00 72 1017.4
20260507121018 14 178 9.7 24.1 0.00 0.00 0.00 73 1017.5
20260507120039 13 180 9.7 20.9 0.00 0.00 0.00 73 1017.5
20260507115018 13 177 11.3 27.4 0.00 0.00 0.00 74 1017.5
20260507114058 13 136 6.4 17.7 0.00 0.00 0.00 73 1017.5
20260507113018 13 165 6.4 17.7 0.00 0.00 0.00 74 1017.4
20260507112039 13 111 8.0 16.1 0.00 0.00 0.00 75 1017.4
20260507111058 13 181 8.0 17.7 0.00 0.00 0.00 75 1017.5
20260507110039 13 172 8.0 16.1 0.00 0.00 0.00 75 1017.6
20260507105019 13 173 6.4 12.9 0.00 0.00 0.00 76 1017.6
20260507104019 13 179 6.4 14.5 0.00 0.00 0.00 76 1017.7
20260507103019 12 173 6.4 17.7 0.00 0.00 0.00 77 1017.8
20260507102025 12 101 4.8 8.0 0.00 0.00 0.00 76 1017.8
20260507101019 12 141 8.0 12.9 0.00 0.00 0.00 76 1017.8
20260507100039 12 147 8.0 17.7 0.00 0.00 0.00 75 1017.8
20260507095019 12 155 8.0 17.7 0.00 0.00 0.00 76 1017.7
20260507094019 12 168 6.4 12.9 0.00 0.00 0.00 76 1017.7
20260507093020 12 185 9.7 17.7 0.00 0.00 0.00 75 1017.7
20260507092026 12 200 9.7 14.5 0.00 0.00 0.00 76 1017.6
20260507091026 12 199 6.4 14.5 0.00 0.00 0.00 76 1017.5
20260507090026 12 140 3.2 8.0 0.00 0.00 0.00 76 1017.5
20260507085020 12 171 11.3 17.7 0.00 0.00 0.00 74 1017.5
20260507084026 12 19 4.8 6.4 0.00 0.00 0.00 73 1017.4
20260507083026 12 56 1.6 6.4 0.00 0.00 0.00 73 1017.4
20260507082026 12 127 1.6 6.4 0.00 0.00 0.00 73 1017.3
20260507081027 12 47 6.4 8.0 0.00 0.00 0.00 75 1017.3
20260507080046 12 350 3.2 8.0 0.00 0.00 0.00 76 1017.2
20260507075027 11 59 4.8 9.7 0.00 0.00 0.00 78 1017.2
20260507074027 11 74 3.2 6.4 0.00 0.00 0.00 79 1017.2
20260507073027 11 73 4.8 12.9 0.00 0.00 0.00 80 1017.1
20260507072027 11 73 3.2 8.0 0.00 0.00 0.00 81 1017.1
20260507071027 11 95 1.6 4.8 0.00 0.00 0.00 83 1017.0
20260507070028 10 87 3.2 6.4 0.00 0.00 0.00 84 1017.0
20260507065108 10 88 4.8 14.5 0.00 0.00 0.00 85 1017.0
20260507064027 10 12 3.2 4.8 0.00 0.00 0.00 85 1017.0
20260507063027 10 71 1.6 4.8 0.00 0.00 0.00 86 1017.0
20260507062028 10 64 3.2 6.4 0.00 0.00 0.00 86 1016.9
20260507061028 9 75 1.6 6.4 0.00 0.00 0.00 87 1016.8
20260507060028 9 78 3.2 9.7 0.00 0.00 0.00 87 1016.7
20260507055048 9 72 6.4 14.5 0.00 0.00 0.00 88 1016.7
20260507054028 9 218 0.0 0.0 0.00 0.00 0.00 88 1016.6
20260507053029 9 51 3.2 8.0 0.00 0.00 0.00 88 1016.4
20260507052108 9 58 4.8 11.3 0.00 0.00 0.00 88 1016.5
20260507051029 9 89 1.6 8.0 0.00 0.00 0.00 88 1016.5
20260507050029 9 247 1.6 4.8 0.00 0.00 0.00 88 1016.5
20260507045029 9 63 0.0 1.6 0.00 0.00 0.00 88 1016.4
20260507044029 9 16 1.6 6.4 0.00 0.00 0.00 88 1016.4
20260507043029 9 355 0.0 4.8 0.00 0.00 0.00 88 1016.2
20260507042029 9 57 1.6 4.8 0.00 0.00 0.00 87 1016.2
20260507041029 9 22 3.2 4.8 0.00 0.00 0.00 87 1016.2
20260507040050 9 54 0.0 1.6 0.00 0.00 0.00 87 1016.1
20260507035030 9 59 4.8 9.7 0.00 0.00 0.00 87 1016.1
20260507034030 9 70 1.6 6.4 0.00 0.00 0.00 87 1016.1
20260507033030 9 34 3.2 4.8 0.00 0.00 0.00 87 1016.0
20260507032031 9 0.0 0.0 0.00 0.00 0.00 87 1016.0
20260507031050 9 109 0.0 3.2 0.00 0.00 0.00 87 1016.0
20260507030030 9 144 1.6 3.2 0.00 0.00 0.00 87 1016.0
20260507025030 9 41 1.6 6.4 0.00 0.00 0.00 87 1016.0
20260507024016 9 98 1.6 3.2 0.00 0.00 0.00 87 1015.9
20260507023016 9 65 1.6 6.4 0.00 0.00 0.00 87 1015.9
20260507022031 9 17 1.6 6.4 0.00 0.00 0.00 87 1015.8
20260507021031 9 3 0.0 4.8 0.00 0.00 0.00 87 1015.8
20260507020051 9 0.0 0.0 0.00 0.00 0.00 86 1015.7
20260507015031 9 26 1.6 4.8 0.00 0.00 0.00 86 1015.7
20260507014051 9 349 1.6 8.0 0.00 0.00 0.00 86 1015.7
20260507013036 9 0.0 0.0 0.00 0.00 0.00 86 1015.8
20260507012017 10 60 0.0 1.6 0.00 0.00 0.00 85 1015.8
20260507011017 10 70 0.0 1.6 0.00 0.00 0.00 85 1015.8
20260507010017 10 38 0.0 3.2 0.00 0.00 0.00 85 1015.8
20260507005017 10 40 0.0 3.2 0.00 0.00 0.00 85 1015.7
20260507004017 10 75 1.6 6.4 0.00 0.00 0.00 84 1015.7
20260507003017 10 44 1.6 3.2 0.00 0.00 0.00 84 1015.8
20260507002017 10 7 0.0 0.0 0.00 0.00 0.00 83 1015.9
20260507001032 10 102 0.0 1.6 0.00 0.00 0.00 83 1015.9
20260507000018 10 4 0.0 1.6 0.00 0.00 0.00 83 1015.9
20260506235018 10 349 1.6 4.8 0.00 0.00 0.00 83 1015.9
20260506234038 10 87 0.0 0.0 0.00 0.00 0.00 82 1015.8
20260506233018 10 19 1.6 4.8 0.00 0.00 0.00 81 1015.8
20260506232019 10 340 0.0 1.6 0.00 0.00 0.00 81 1015.8
20260506231019 10 4 3.2 4.8 0.00 0.00 0.00 81 1015.8
20260506230018 10 16 1.6 3.2 0.00 0.00 0.00 80 1015.8